Weather History for Elkins, WV

Change the Weather History Date:

Friday, February 7, 2014

  Actual Average Record
Temperature  
Mean Temperature 22 °F 31 °F  
Max Temperature 27 °F 41 °F 67 °F (2005)
Min Temperature 16 °F 21 °F -14 °F (1907)
Degree Days  
Heating Degree Days 43 34  
Month to date heating degree days 227 243  
Since 1 July heating degree days 3730 3644  
Cooling Degree Days 0 0  
Month to date cooling degree days 0 0  
Year to date cooling degree days 0 0  
Moisture  
Dew Point 14 °F    
Average Humidity 71    
Maximum Humidity 80    
Minimum Humidity 62    
Precipitation  
Precipitation T in 0.10 in 0.54 in (1951)
Month to date precipitation 1.97 0.74  
Year to date precipitation 4.12 3.97  
Snow  
Snow T in - - ()
Month to date snowfall 2.2  
Since 1 September snowfall 41.4  
Snow Depth 1.00 in    
Sea Level Pressure  
Sea Level Pressure 30.35 in    
Wind  
Wind Speed 6 mph (West)    
Max Wind Speed 13 mph    
Max Gust Speed 17 mph    
Visibility 10 miles    
Events Snow    
T = Trace of Precipitation, MM = Missing Value Source: NWS Daily Summary

Daily Weather History Graph

Daily Weather History Graph

Search for Another Location

Airport:

Trip Planner

Search our weather history database for the weather conditions in past years. The results will help you decide how hot, cold, wet, or windy it might be!

Date:

Astronomy

Feb. 07, 2014 Rise Set
Actual Time 7:19 AM EST 5:47 PM EST
Civil Twilight 6:52 AM EST 6:15 PM EST
Nautical Twilight 6:20 AM EST 6:47 PM EST
Astronomical Twilight 5:49 AM EST 7:18 PM EST
Moon 11:58 AM EST (2/7) 1:33 AM EST (2/7)
Length of Visible Light 11h 23m
Length of Day
10h 28m
First Quarter, 59% of the Moon is Illuminated
Feb 7
First Quarter
Feb 14
Full
Feb 22
Last Quarter
Mar 1
New
Mar 8
First Quarter

Hourly Weather History & Observations

Time (EST) Temp. Windchill Dew Point Humidity Pressure Visibility Wind Dir Wind Speed Gust Speed Precip Events Conditions
12:51 AM 23.0 °F 14.7 °F 14.0 °F 68% 30.33 in 10.0 mi WSW 6.9 mph - N/A   Overcast
1:51 AM 23.0 °F 17.0 °F 15.1 °F 72% 30.33 in 10.0 mi West 4.6 mph - N/A   Overcast
2:51 AM 21.9 °F 11.7 °F 14.0 °F 72% 30.33 in 10.0 mi WSW 9.2 mph - N/A   Overcast
3:51 AM 21.9 °F 15.7 °F 15.1 °F 75% 30.35 in 7.0 mi WSW 4.6 mph - 0.00 in Snow Light Snow
4:51 AM 21.9 °F 15.7 °F 15.1 °F 75% 30.35 in 8.0 mi WSW 4.6 mph - 0.00 in Snow Light Snow
5:51 AM 21.9 °F 11.0 °F 16.0 °F 78% 30.36 in 8.0 mi WNW 10.4 mph - 0.00 in Snow Light Snow
6:51 AM 21.0 °F 12.4 °F 14.0 °F 74% 30.38 in 10.0 mi West 6.9 mph - 0.00 in   Overcast
7:51 AM 21.0 °F 14.6 °F 14.0 °F 74% 30.36 in 10.0 mi WNW 4.6 mph - N/A   Overcast
8:51 AM 21.0 °F 16.2 °F 15.1 °F 78% 30.38 in 8.0 mi NW 3.5 mph - 0.00 in Snow Light Snow
9:51 AM 23.0 °F 14.7 °F 12.9 °F 65% 30.38 in 10.0 mi WSW 6.9 mph - 0.00 in   Overcast
10:51 AM 25.0 °F 17.1 °F 15.1 °F 66% 30.38 in 10.0 mi West 6.9 mph - N/A   Overcast
11:51 AM 25.0 °F 15.5 °F 14.0 °F 63% 30.37 in 10.0 mi West 9.2 mph - N/A   Overcast
12:51 PM 26.1 °F 16.2 °F 16.0 °F 66% 30.36 in 10.0 mi WNW 10.4 mph - N/A   Overcast
1:51 PM 26.1 °F 16.8 °F 16.0 °F 66% 30.35 in 10.0 mi West 9.2 mph - N/A   Overcast
2:25 PM 26.1 °F 16.8 °F 16.0 °F 66% 30.26 in 10.0 mi West 9.2 mph - 0.00 in   Overcast
2:36 PM 25.0 °F 17.1 °F 15.1 °F 66% 30.25 in 10.0 mi West 6.9 mph - 0.00 in   Overcast
2:51 PM 25.0 °F 14.8 °F 15.1 °F 66% 30.35 in 9.0 mi West 10.4 mph - 0.00 in Snow Light Snow
3:34 PM 26.1 °F 17.6 °F 15.1 °F 63% 30.26 in 10.0 mi West 8.1 mph - 0.00 in   Overcast
3:51 PM 25.0 °F 15.5 °F 15.1 °F 66% 30.35 in 10.0 mi West 9.2 mph - 0.00 in   Overcast
4:21 PM 25.0 °F 17.1 °F 14.0 °F 63% 30.28 in 10.0 mi West 6.9 mph - N/A   Mostly Cloudy
4:33 PM 25.0 °F 18.1 °F 15.1 °F 66% 30.28 in 10.0 mi WSW 5.8 mph - N/A   Overcast
4:51 PM 24.1 °F 18.2 °F 15.1 °F 69% 30.38 in 10.0 mi SW 4.6 mph - N/A   Overcast
5:51 PM 24.1 °F 16.0 °F 14.0 °F 65% 30.39 in 10.0 mi West 6.9 mph - N/A   Overcast
6:51 PM 23.0 °F 15.8 °F 14.0 °F 68% 30.40 in 10.0 mi Variable 5.8 mph - N/A   Mostly Cloudy
7:16 PM 21.9 °F 14.5 °F 12.9 °F 68% 30.29 in 10.0 mi WNW 5.8 mph - N/A   Partly Cloudy
7:51 PM 21.9 °F 17.2 °F 12.9 °F 68% 30.39 in 10.0 mi West 3.5 mph - N/A   Clear
8:51 PM 21.0 °F 16.2 °F 12.9 °F 71% 30.38 in 10.0 mi WNW 3.5 mph - N/A   Scattered Clouds
9:51 PM 17.1 °F - 10.9 °F 77% 30.37 in 10.0 mi Calm Calm - N/A   Clear
10:51 PM 17.1 °F - 12.0 °F 81% 30.36 in 10.0 mi Calm Calm - N/A   Clear
11:51 PM 17.1 °F - 12.9 °F 84% 30.36 in 10.0 mi Calm Calm - N/A   Clear